ROMMA est une association bénévole à but non lucratif. Votre soutien est indispensable : ADHERER à ROMMA ou FAIRE un DON

Saint-Vallier-de-Thiey - (06, Alpes-Maritimes)

Côte-d'Azur (723 m)   Longitude: 06° 50' 21" E   Latitude: 43° 42' 8" N Station partenaire n°150
 

Détail journalier du     <<     >>

Température Precipitation Humidité Pression Vent Dir Rafale Dir. rafale
Heure (°C) (mm) (%) (hPa) (km/h) (km/h)
01:00 12.805410137ONO39O
02:00 9.606810133NNO13N
03:00 11.206210134NNO16N
04:00 13.104610147NNE26NNE
05:00 12.404810156N21N
06:00 10.505710163NNO13NNO
07:00 10.606110172N6N
08:00 10.406810172N6N
09:00 11.007610181N5N
10:00 15.105810181N6NE
11:00 16.605910194S10S
12:00 16.906610195S13S
13:00 17.606310194SSO13SO
14:00 18.105710184S15S
15:00 18.804910184S15SSO
16:00 19.204610195SSE18SSE
17:00 18.305010183S10SSE
18:00 16.905210182SSE6SSE
19:00 16.3054101803S
20:00
21:00 10.607910201NO6NO
22:00 10.308010202NO6NO
23:00
minuit 10.807610202NNO8NNO

Graphique du 16-10-2019

 

Serveur OMMA